STARLINK-36031, 66593

Orbit data source: Space-Track

STARLINK-36031, 66593 is a payload satellite owned by SpaceX/Seattle (US) in LEO that was launched on Sat, 22 Nov 2025 UTC via an FALCON 9 launch vehicle from the Air Force Eastern Test Range (AFETR). Payload-class satellites include a variety of spacecraft equipped with specific instruments for various scientific and technological missions. These include communications satellites like Starlink; space stations such as the ISS; scientific satellites like the Hubble; Earth observation satellites from companies like Planet Labs, Umbra, and HawkEye 360; GPS; miniature CubeSats for education and research; and military/defense satellites.

Loading next visibility...
Identifier
66593, 2025-270F
Orbit
LEO
Country
Flag of USUS
Related business
Manufacturer
SpaceX/Seattle
Mission
Operational Commercial Communications
Bus & Motor
STARLINK V2MO, Unknown motor
Mass
575 kg wet, ~530 kg dry
Launch date (UTC)
2025-11-22 (7 months ago)
Launch vehicle
FALCON 9
Launch site
Air Force Eastern Test Range (AFETR)
Object type
Payload
Rocket body
Debris
Shape & HBR
Box + 2 Pan, 17.7 m
Radar Cross Section
36.964 m², Large (>1 m²)

Expand to show TLE details & history
Last TLE update: 17 hours ago

TLE from 17 hours ago
0 STARLINK-36031
1 66593U 25270F   26171.12080172  .00021827  00000-0  79991-3 0  9991
2 66593  43.0007 197.5087 0001239 204.6882 155.3910 15.27598846 33372
Epoch: 2026-06-20T02:53Z
TLE epoch observation values (Epoch: 2026-06-20T02:53:57.268Z)
Latitude
-0.00006°
Longitude
-114.31996°
Altitude
483.541 km
Speed
7.625 km/s
True Right ascension
13h 10m 02s
True Declination
0° 00' 00"
Sunlit
Object was in daylight at epoch
Visualization orbit readout
Latitude
Unknown
Longitude
Unknown
Altitude
Unknown
Speed
Unknown
Apparent Right ascension
Unknown
Apparent Declination
Unknown
Sunlit
N/A
Visualization observer readout
Local Sidereal Time
07:15:19
Azimuth
Unknown
Elevation
Unknown
Doppler factor
Unknown
Orbital elements
Apogee altitude
485.788 km
Perigee altitude
484.087 km
Semi-major axis
6,863.075 km
Eccentricity
0.00012
Inclination
43.0007°
RAAN
197.5087°
Arg. of periapsis
204.6882°
True anomaly
155.39691°
Mean anomaly
155.391°
Eccentric anomaly
155.39396°
Mean motion
3.81738 °/min
Orbital period
94.31 mins
BSTAR
0.00079991
Loading maneuver chart data...
Computing Atmospheric mass density...
Loading historical data...
Loading historical data...
Loading historical data...
Loading historical data...
Loading historical data...
Loading historical data...
Loading historical data...

Documentation

Showing up to 5 results
|